Regional Weather Roundup
Issued by NWS

Home | Current Version | Previous Version | Text Only | Print | Product List | Glossary Off
Versions: 1 2 3 4 5 6 7 8 9 10 11 12 13 14 15 16 17 18 19 20 21 22 23 24 25 26 27 28 29 30 31 32 33 34 35 36 37 38 39 40 41 42 43 44 45 46 47 48 49 50

000
ASUS43 KFSD 270802
RWRSD

WEATHER ROUNDUP FOR SOUTH DAKOTA
NATIONAL WEATHER SERVICE SIOUX FALLS SD
300 AM CDT WED JUL 27 2016

NOTE: "FAIR" INDICATES FEW OR NO CLOUDS BELOW 12,000 FEET WITH NO
SIGNIFICANT WEATHER AND/OR OBSTRUCTIONS TO VISIBILITY.


SDZ001>005-009-010-012>017-270900-
NORTHWEST AND NORTH CENTRAL SOUTH DAKOTA

CITY           SKY/WX    TMP DP  RH WIND       PRES   REMARKS
FAITH            N/A     61  58  90 N10       30.05S
MOBRIDGE       CLOUDY    67  63  87 CALM      29.99R
$$

SDZ012>016-024>037-041>051-057-063-072>074-270900-
SOUTHWEST AND SOUTH CENTRAL SOUTH DAKOTA

CITY           SKY/WX    TMP DP  RH WIND       PRES   REMARKS
RAPID CTY ARPT CLEAR     64  59  83 NW15      30.08F
PIERRE         CLOUDY    65  62  90 E5        29.97F
CUSTER         CLEAR     57  53  86 N5        30.20F
ELLSWORTH AFB  CLEAR     63  61  93 NW7       30.08F
PHILIP         CLOUDY    65  61  87 W5        30.00S
PINE RIDGE     CLEAR     58  57  97 SE8       30.09R
WINNER         FAIR      69  58  67 W7        30.00R
$$

SDZ004>011-016>023-039-040-270900-
NORTHEAST SOUTH DAKOTA

CITY           SKY/WX    TMP DP  RH WIND       PRES   REMARKS
ABERDEEN       CLOUDY    68  62  81 NE14      29.97S
WATERTOWN      CLOUDY    70  63  78 E7        29.97R
BROOKINGS      CLOUDY    70  65  84 S8        29.95S
SISSETON         N/A     67  66  97 NW8       29.98S
$$

SDZ017-020-022-023-036>040-048>070-270900-
SOUTHEAST SOUTH DAKOTA

CITY           SKY/WX    TMP DP  RH WIND       PRES   REMARKS
SIOUX FALLS    MOCLDY    75  64  68 S18G26    29.94F
HURON          CLOUDY    70  65  84 W13       29.92R
CHAMBERLAIN    CLOUDY    69  63  83 NW9       29.99R
MITCHELL       CLOUDY    73  62  68 N10       29.93S
YANKTON        CLOUDY    73  63  68 SW30      29.93F
$$

ABBREVIATIONS USED IN REMARKS
   TC - TEMPERATURE IN CELSIUS
  WCI - WIND CHILL INDEX
   HX - HEAT INDEX
  VSB - VISIBILITY




USA.gov is the U.S. government's official web portal to all federal, state and local government web resources and services.